KE5FMN Weather Reports


Display with metric or nautical units.
time (UTC)temp
F
wind
direction
speed
MPH
gust
MPH
rain 1hr
in
rain 24hr
in
rain mn
in
humidity
%
barometer
mb
20260510153055 70 349 0.0 2.0 0.00 0.00 0.00 71 1016.8
20260510151614 69 0 0.0 1.0 0.00 0.00 0.00 75 1016.7
20260510150057 69 0 0.0 1.0 0.00 0.00 0.00 78 1016.7
20260510144601 68 0 0.0 1.0 0.00 0.00 0.00 77 1016.6
20260510143051 67 0 0.0 2.0 0.00 0.00 0.00 78 1016.5
20260510141552 66 0 0.0 1.0 0.00 0.00 0.00 79 1016.4
20260510134605 64 0 0.0 1.0 0.00 0.00 0.00 83 1015.9
20260510133054 64 94 0.0 1.0 0.00 0.00 0.00 86 1015.6
20260510131559 63 0 0.0 1.0 0.00 0.00 0.00 88 1015.4
20260510130056 62 0 0.0 1.0 0.00 0.00 0.00 90 1015.5
20260510124554 60 37 0.0 1.0 0.00 0.00 0.00 91 1015.2
20260510123057 60 0 0.0 0.0 0.00 0.00 0.00 92 1015.1
20260510121549 59 0 0.0 0.0 0.00 0.00 0.00 91 1014.9
20260510120053 59 0 0.0 0.0 0.00 0.00 0.00 91 1014.7
20260510114553 59 0 0.0 0.0 0.00 0.00 0.00 91 1014.6
20260510113051 59 0 0.0 0.0 0.00 0.00 0.00 90 1014.9
20260510111609 58 0 0.0 0.0 0.00 0.00 0.00 88 1014.5
20260510110100 58 0 0.0 0.0 0.00 0.00 0.00 87 1014.3
20260510104555 59 0 0.0 0.0 0.00 0.00 0.00 87 1014.3
20260510103055 59 0 0.0 0.0 0.00 0.00 0.00 86 1014.1
20260510101553 59 0 0.0 0.0 0.00 0.00 0.00 86 1014.1
20260510100057 59 0 0.0 0.0 0.00 0.00 0.00 85 1014.0
20260510094553 60 0 0.0 0.0 0.00 0.00 0.00 84 1013.8
20260510093111 60 0 0.0 0.0 0.00 0.00 0.00 84 1013.6
20260510091557 60 0 0.0 0.0 0.00 0.00 0.00 81 1013.5
20260510090116 61 0 0.0 0.0 0.00 0.00 0.00 82 1013.7
20260510084552 61 0 0.0 0.0 0.00 0.00 0.00 79 1013.5
20260510083111 60 0 0.0 0.0 0.00 0.00 0.00 81 1013.2
20260510081610 60 0 0.0 0.0 0.00 0.00 0.00 81 1013.0
20260510080056 61 0 0.0 0.0 0.00 0.00 0.00 78 1012.9
20260510074558 61 0 0.0 0.0 0.00 0.00 0.00 77 1013.0
20260510073054 60 0 0.0 0.0 0.00 0.00 0.00 79 1013.2
20260510071555 59 0 0.0 0.0 0.00 0.00 0.00 82 1013.1
20260510070053 59 0 0.0 0.0 0.00 0.00 0.00 86 1013.3
20260510064602 60 0 0.0 0.0 0.00 0.00 0.00 86 1013.3
20260510063055 60 0 0.0 0.0 0.00 0.00 0.00 85 1013.3
20260510061557 59 0 0.0 0.0 0.00 0.00 0.00 84 1013.3
20260510060053 59 0 0.0 0.0 0.00 0.00 0.00 84 1013.3
20260510054553 59 0 0.0 0.0 0.00 0.00 0.00 83 1013.2
20260510053052 60 0 0.0 0.0 0.00 0.00 0.00 81 1013.3
20260510051556 61 0 0.0 0.0 0.00 0.00 0.00 77 1013.1
20260510050055 62 0 0.0 0.0 0.00 0.00 0.00 74 1013.0
20260510044619 62 0 0.0 0.0 0.00 0.00 0.00 74 1012.6
20260510043055 62 0 0.0 0.0 0.00 0.00 0.00 75 1012.5
20260510041553 63 0 0.0 0.0 0.00 0.00 0.00 76 1012.5
20260510040053 63 0 0.0 0.0 0.00 0.00 0.00 74 1012.5
20260510034551 63 0 0.0 0.0 0.00 0.00 0.00 77 1012.5
20260510033100 64 0 0.0 0.0 0.00 0.00 0.00 76 1012.6
20260510031552 64 0 0.0 0.0 0.00 0.00 0.00 74 1012.5
20260510030055 65 0 0.0 0.0 0.00 0.00 0.00 73 1012.5
20260510024559 66 0 0.0 0.0 0.00 0.00 0.00 72 1012.3
20260510023054 68 0 0.0 0.0 0.00 0.00 0.00 69 1012.1
20260510021600 70 0 0.0 0.0 0.00 0.00 0.00 67 1011.9
20260510014556 72 157 0.0 1.0 0.00 0.00 0.00 61 1011.5
20260510013059 72 144 0.0 1.0 0.00 0.00 0.00 58 1011.3
20260510011600 73 0 0.0 1.0 0.00 0.00 0.00 56 1011.2
20260510010126 74 0 0.0 1.0 0.00 0.00 0.00 54 1011.1
20260510004609 74 142 0.0 1.0 0.00 0.00 0.00 53 1010.9
20260510003059 74 148 0.0 1.0 0.00 0.00 0.00 52 1010.7
20260510001550 75 0 0.0 1.0 0.00 0.00 0.00 50 1010.6
20260510000054 76 0 0.0 0.0 0.00 0.00 0.00 50 1010.6
20260509234632 77 98 0.0 0.0 0.00 0.00 0.00 48 1010.4
20260509233054 78 0 0.0 0.0 0.00 0.00 0.00 41 1010.3
20260509231555 79 0 0.0 1.0 0.00 0.00 0.00 38 1010.3
20260509230058 80 0 0.0 1.0 0.00 0.00 0.00 40 1010.3
20260509224553 81 0 0.0 1.0 0.00 0.00 0.00 35 1010.1
20260509223052 81 0 0.0 1.0 0.00 0.00 0.00 37 1009.9
20260509221554 82 72 0.0 2.0 0.00 0.00 0.00 34 1010.1
20260509214554 82 0 0.0 2.0 0.00 0.00 0.00 36 1010.1
20260509213057 83 0 0.0 1.0 0.00 0.00 0.00 32 1010.2
20260509211554 84 221 0.0 2.0 0.00 0.00 0.00 32 1010.4
20260509210057 84 0 1.0 3.0 0.00 0.00 0.00 35 1010.6
20260509204601 85 221 1.0 2.0 0.00 0.00 0.00 34 1010.8
20260509203138 85 221 0.0 3.0 0.00 0.00 0.00 33 1010.8
20260509201604 85 141 0.0 2.0 0.00 0.00 0.00 38 1010.8
20260509200108 84 216 1.0 2.0 0.00 0.00 0.00 33 1010.9
20260509194601 85 136 0.0 3.0 0.00 0.00 0.00 38 1010.8
20260509193117 85 65 0.0 2.0 0.00 0.00 0.00 44 1010.9
20260509191612 84 144 0.0 2.0 0.00 0.00 0.00 44 1011.0
20260509190057 84 0 0.0 3.0 0.00 0.00 0.00 39 1011.1
20260509184551 85 84 0.0 3.0 0.00 0.00 0.00 46 1011.1
20260509183057 83 2 0.0 4.0 0.00 0.00 0.00 46 1011.3
20260509181558 85 100 0.0 1.0 0.00 0.00 0.00 43 1011.5
20260509180104 84 121 0.0 3.0 0.00 0.00 0.00 47 1011.6
20260509174552 84 0 0.0 1.0 0.00 0.00 0.00 51 1011.4
20260509173101 81 141 0.0 4.0 0.00 0.00 0.00 50 1011.4
20260509171551 81 314 0.0 3.0 0.00 0.00 0.00 51 1011.4
20260509170058 79 309 1.0 2.0 0.00 0.00 0.00 53 1011.5
20260509164601 78 331 1.0 2.0 0.00 0.00 0.00 54 1011.3
20260509163052 78 0 0.0 3.0 0.00 0.00 0.00 57 1011.3
20260509161557 78 306 0.0 2.0 0.00 0.00 0.00 59 1011.6
20260509160053 77 335 0.0 2.0 0.00 0.00 0.00 62 1011.4
20260509154551 76 300 0.0 3.0 0.00 0.00 0.00 63 1011.5